ジョンソン彗星

48P/Johnson (2011)

English version
Home page
Updated on April 7, 2012

---------------------------------------------------------------------

・ プロフィール

・ 写真集

・ 軌道要素

Epoch 2011 Oct. 6.0 TT = JDT 2455840.5
T 2011 Sept. 29.30385 TT                                MPC
q   2.3011192            (2000.0)            P               Q
n   0.14197702     Peri.  207.95707     +0.80964620     +0.54808530
a   3.6390723      Node   117.27179     -0.48477010     +0.82613551
e   0.3676632      Incl.   13.66217     -0.33086400     +0.13077695
P   6.94
From 845 observations 1949 Sept. 24-2011 Aug. 9, mean residual 0".7.
     Nongravitational parameters A1 = +0.62, A2 = -0.0196.

・ 星図

・ 光度変化

        m1 = 14.5 + 5 logΔ +  5.0 log r  [    ,-170]  (              〜2011年 4月12日)
        m1 = -4.0 + 5 logΔ + 50   log r  [-170, 170]  (2011年 4月12日〜2012年 3月17日)
        m1 = 14.5 + 5 logΔ +  5.0 log r  [ 170,    ]  (2012年 3月17日〜              )

---------------------------------------------------------------------

軌道要素はM.P.E.C. 2011-P44に掲載されたものです。
星図はステラナビゲータ Ver.8 (アストロアーツ) で作成したものです。
光度グラフはComet for Windowsで作成したものです。

---------------------------------------------------------------------

Copyright(C) Seiichi Yoshida (comet@aerith.net). All rights reserved.